Home > Weather > Medicine Hat > Past weeks

Flag for Canada Past Weather in Medicine Hat, Alberta, Canada — Yesterday and Last 2 Weeks

Now
64 °F

Passing clouds.


Feels Like: 64 °F
Forecast: 45 / 72 °F
Wind: 22 mph from Southwest

Location: Medicine Hat

Current Time: May 29, 2016 at 11:18:00 AM

Latest Report: May 29, 2016 at 10:00 AM


Visibility: 30 mi

Pressure: 29.91 "Hg (27.68 "Hg at 661m altitude)

Humidity: 37%

Dew Point: 37 °F

Location of Medicine HatLocation

Past Weather in Medicine Hat — Graph

°F

Medicine Hat Temperature Yesterday

Maximum temperature yesterday: 66 °F (at 7:00 PM)
Minimum temperature yesterday: 46 °F (at 6:00 AM)
Average temperature yesterday: 55 °F

High & Low Weather Summary for the Past Weeks

 TemperatureHumidityPressure
High81 °F (May 18, 3:00 PM)100% (May 20, 3:00 AM)30.40 "Hg (May 20, 3:00 AM)
Low36 °F (May 15, 3:00 AM)19% (May 14, 4:00 PM)29.49 "Hg (May 22, 2:00 PM)
Average54 °F69%29.86 "Hg
* Reported May 14 10:00 AM — May 29 10:00 AM, Medicine Hat, Weather by CustomWeather, © 2016

Note: Actual official high and low records may vary slightly from our data, if they occured in-between our weather recording intervals... More about our weather records

Advertising

Medicine Hat Weather History for the Previous 24 Hours

Scroll right to see more
 ConditionsComfort  
Time TempWeatherWind HumidityBarometerVisibility
10:00 AM
Sun, May 29
64 °FPassing clouds.22 mph37%29.91 "Hg30 mi
9:00 AM59 °FPassing clouds.16 mph48%29.93 "Hg30 mi
8:00 AM54 °FPassing clouds.15 mph58%29.93 "Hg30 mi
7:00 AM46 °FPassing clouds.9 mph71%29.94 "Hg30 mi
6:00 AM43 °FClear.5 mph81%29.95 "Hg9 mi
5:00 AM45 °FClear.12 mph71%29.95 "Hg9 mi
4:00 AM45 °FClear.10 mph76%29.95 "Hg9 mi
3:00 AM46 °FClear.13 mph71%29.95 "Hg9 mi
2:00 AM45 °FClear.8 mph76%29.95 "Hg9 mi
1:00 AM45 °FClear.2 mph81%29.95 "Hg9 mi
12:00 AM46 °FClear.8 mph76%29.93 "Hg9 mi
11:00 PM
Sat, May 28
50 °FClear.6 mph62%29.93 "Hg9 mi
10:00 PM54 °FSunny.9 mph58%29.92 "Hg9 mi
9:00 PM57 °FScattered clouds.6 mph59%29.91 "Hg30 mi
8:00 PM63 °FScattered clouds.9 mph37%29.89 "Hg30 mi
7:00 PM66 °FScattered clouds.9 mph30%29.87 "Hg30 mi
6:00 PM64 °FScattered clouds.No wind40%29.88 "Hg30 mi
5:00 PM63 °FBroken clouds.7 mph45%29.89 "Hg30 mi
4:00 PM63 °FScattered clouds.2 mph39%29.89 "Hg30 mi
3:00 PM61 °FBroken clouds.7 mph48%29.90 "Hg30 mi
2:46 PM61 °FBroken clouds.8 mph45%29.90 "Hg30 mi
2:00 PM59 °FThunderstorms. Partly sunny.12 mph59%29.90 "Hg15 mi
1:46 PM59 °FThunderstorms. Partly sunny.13 mph63%29.90 "Hg15 mi
1:00 PM63 °FScattered showers. Partly sunny.9 mph45%29.89 "Hg30 mi
12:00 PM59 °FPartly sunny.7 mph55%29.89 "Hg30 mi
11:00 AM57 °FPartly sunny.8 mph67%29.90 "Hg30 mi
Weather by CustomWeather, © 2016

See weather overviewHow to use our weather pages